User: anonymous   Login
Location: Caltech
(34.1382°N, 118.1253°W)
Time: 09:06:29
(UTC-07:00)
Language:

Cosmos 1508 Rocket - Orbit

View from above orbital plane
View from above orbital plane
View from above satellite
View from above satellite

Ground track
Ground track

The orbit data is extracted from the following two-line orbital elements,

1 14484U 83111B   15088.18181259  .00158100  58497-5  10792-2 0  9996
2 14484 082.8260 047.9450 0114076 314.0975 118.7631 15.66116898616557
Epoch (UTC): 29 March 2015 04:21:48
Eccentricity: 0.0114076
inclination: 82.8260°
perigee height: 293 km
apogee height: 447 km
right ascension of ascending node: 47.9450°
argument of perigee: 314.0975°
revolutions per day: 15.66116898
mean anomaly at epoch: 118.7631°
orbit number at epoch: 61655

The dashed part of the orbit path shows where the satellite is in the earth's shadow,  

DLR